Regional Weather Roundup
Issued by NWS

Home | Current Version | Previous Version | Graphics & Text | Print | Product List | Glossary Off
Versions: 1 2 3 4 5 6 7 8 9 10 11 12 13 14 15 16 17 18 19 20 21 22 23 24 25 26 27 28 29 30 31 32 33 34 35 36 37 38 39 40 41 42 43 44 45 46 47 48 49 50

192
ASUS43 KMKX 310300
RWRWI

WISCONSIN REGIONAL WEATHER ROUNDUP
NATIONAL WEATHER SERVICE MILWAUKEE/SULLIVAN WI
1000 PM CDT TUE AUG 30 2016

NOTE: "FAIR" INDICATES FEW OR NO CLOUDS BELOW 12,000 FEET WITH NO
SIGNIFICANT WEATHER AND/OR OBSTRUCTIONS TO VISIBILITY.

WIZ001-002-006>008-014>016-023>028-310400-
NORTHWEST WISCONSIN

CITY           SKY/WX    TMP DP  RH WIND       PRES   REMARKS
SUPERIOR ARPT  CLEAR     56  53  89 CALM      30.16S
ASHLAND        CLEAR     56  53  90 W3        30.16R
HAYWARD        CLEAR     55  53  93 CALM      30.17S
SIREN          CLEAR     59  55  88 CALM      30.18R
CUMBERLAND     CLEAR     59  55  88 N7        30.17R
RICE LAKE      CLEAR     61  55  81 NW3       30.18R
CHETEK         NOT AVBL
LADYSMITH      CLEAR     61  55  82 N6        30.17S
EAU CLAIRE     NOT AVBL
MENOMONIE      CLEAR     63  58  84 W5        30.15S
NEW RICHMOND   CLEAR     61  56  84 N3        30.18R
OSCEOLA        CLEAR     64  56  77 CALM      30.20R
$$

WIZ003>005-009-010-017-018-310400-
NORTH CENTRAL WISCONSIN

CITY           SKY/WX    TMP DP  RH WIND       PRES   REMARKS
MANITOWISH WTR NOT AVBL
ARBOR VITAE    CLEAR     56  51  86 CALM      30.16R
WOODRUFF       CLEAR     56  51  86 CALM      30.16R
RHINELANDER    CLEAR     59  50  72 CALM      30.16R
EAGLE RIVER    CLEAR     55  47  77 NW6       30.15S
LAND O LAKES   CLEAR     52  50  94 CALM      30.16R
PHILLIPS       CLEAR     56  56  99 CALM      30.16R
TOMAHAWK       CLEAR     58  49  73 CALM      30.16R
MEDFORD        CLEAR     62  57  83 N8        30.14R
MERRILL        CLEAR     61  51  69 NE3       30.15R
$$

WIZ029-030-035-036-043>047-310400-
CENTRAL WISCONSIN

CITY           SKY/WX    TMP DP  RH WIND       PRES   REMARKS
WAUSAU         CLEAR     67  53  61 N8        30.11R
MOSINEE        CLEAR     66  61  82 N7        30.14R
MARSHFIELD     CLEAR     64  58  80 N7        30.12R
STEVENS POINT  CLEAR     66  60  82 CALM      30.12R
WAUPACA        PTCLDY    72  65  81 NW3       30.09R
WAUTOMA        PTCLDY    71  64  78 NW6       30.09
WISC RAPIDS    CLEAR     68  63  84 N5        30.12R
CAMP DOUGLAS   NOT AVBL
$$

WIZ011>013-019>022-031-037>040-048>050-310400-
NORTHEAST WISCONSIN

CITY           SKY/WX    TMP DP  RH WIND       PRES   REMARKS
ANTIGO         CLEAR     60  53  76 CALM      30.14R
SHAWANO        CLOUDY    70  61  73 NW6       30.09R
OCONTO         NOT AVBL
STURGEON BAY   CLOUDY    70  64  81 NE13      30.08R
GREEN BAY      CLOUDY    71  66  84 NW6       30.07R
MANITOWOC      NOT AVBL
APPLETON       MOCLDY    73  59  60 N9        30.07R
CLINTONVILLE   CLOUDY    70  59  68 N3        30.09R
OSHKOSH        CLOUDY    75  65  70 N10       30.06R
$$

WIZ032>034-041-042-053>061-310400-
SOUTHWEST WISCONSIN

CITY           SKY/WX    TMP DP  RH WIND       PRES   REMARKS
LA CROSSE      CLEAR     67  63  87 N7        30.12R
SPARTA         CLEAR     64  63  97 CALM      30.13R
VIROQUA        CLEAR     66  63  89 NW7       30.14R
BOSCOBEL       MOCLDY    69  68  96 CALM      30.10R
PRAIRIE DU CHI CLEAR     69  67  92 CALM      30.10R
PLATTEVILLE    CLEAR     71  70  97 NW3       30.11R
$$

WIZ056-057-062-063-064-067-068-310400-
SOUTH CENTRAL WISCONSIN

CITY           SKY/WX    TMP DP  RH WIND       PRES   REMARKS
REEDSBURG      NOT AVBL
BARABOO/DELLS  CLEAR     70  65  83 NW5       30.09R
LONE ROCK      NOT AVBL
MINERAL POINT  CLEAR     70  68  94 N3        30.10R
MADISON        CLOUDY    69  67  93 CALM      30.07R
MIDDLETON      CLOUDY    70  70 100 CALM      30.09R
WATERTOWN      CLEAR     71  71 100 CALM      30.06R
MONROE         PTCLDY    70  68  94 NW9       30.09R
JANESVILLE     NOT AVBL
$$

WIZ051-052-058>065-066-070>072-310400-
SOUTHEAST WISCONSIN

CITY           SKY/WX    TMP DP  RH WIND       PRES   REMARKS
MILWAUKEE      PTCLDY    73  69  87 W6        30.05R
WAUKESHA       CLEAR     68  64  88 CALM      30.08R
MILWAUKEE/TIMM CLEAR     70  64  83 CALM      30.06R
RACINE         PTCLDY    70  68  93 W5        30.07R
BURLINGTON     CLOUDY    65  65  99 CALM      30.07R
KENOSHA        PTCLDY    68  66  93 W3        30.06R
FOND DU LAC    CLEAR     73  65  75 NW10      30.06R
SHEBOYGAN      CLEAR     73  65  75 N7        30.05R
WEST BEND      CLEAR     72  68  88 W3        30.05S
JUNEAU         CLEAR     71  65  80 NW5       30.07S
$$

LSZ147-162-310400-
LAKE SUPERIOR

STATION/POSITION TIME  TEMP    WIND        PRES    WAVE
                       AIR SEA DIR/SP/G            HT/PER
                 (UTC) (F)     (DEG/KT/KT) (MB)    (FT/S)
W MID LAKE BUOY  0150   68 67  270/ 10/ 12 1019.2R   1/ 3
DEVILS ISLAND    0200   69     320/ 15/ 17 1020.4R
PORT WING        0240   70     340/  6/  8 1021.0R
SAXON HARBOR     0200   62     200/  4/  4 1020.0
$$

LMZ867-665-643>646-310400-
LAKE MICHIGAN

STATION/POSITION TIME  TEMP    WIND        PRES    WAVE
                       AIR SEA DIR/SP/G            HT/PER
                 (UTC) (F)     (DEG/KT/KT) (MB)    (FT/S)
CHAMBERS ISLAND  0200   70      20/ 19/ 23 1017.9R
S GREEN BAY BUOY 0130   75 74  360/  8/ 10 1016.8R
N MID LAKE BUOY  0150   69 72  360/ 19/ 23 1016.9R   2/ 4
NORTHPORT PIER   0200   69      20/ 15/ 20 1018.3R
SISTER BAY       0207   69      10/ 14/ 22   N/A
ALGOMA LAKESHORE 0145          340/  7/ 10   N/A
KEWAUNEE LAKESHO 0200   74                 1016.7R
SHEBOYGAN LAKESH 0200   76     240/  4/  5 1016.3R
PORT WASHINGTON  0200   75     280/  4/  6 1017.6R
ATWATER BUOY     0200   72     300/  2/  4   N/A
MILWAUKEE LAKESH 0210   75     270/  5/  7   N/A
S MID LAKE BUOY  0150   74 75  220/  4/  4 1016.8R   1
KENOSHA   LAKESH 0200   72     270/  4/  6 1017.3R
$$

TC  - TEMPERATURE IN CELSIUS
VSB - VISIBILITY IN STATUTE MILES
WCI - WIND CHILL INDEX
HX  - HEAT INDEX





USA.gov is the U.S. government's official web portal to all federal, state and local government web resources and services.